Location: Unspecified
(0.0000°N, 0.0000°E)
Time: 23:24:36
(UTC+00:00)

S-56A Canister/Altair - Pass Details

Date: 10 October 2020
Orbit: 633 x 2499 km, 38.9° (Epoch: 28 October)

Event Time Altitude Azimuth Distance (km) Brightness Sun altitude
Rises 17:07:19 0° 327° (NNW) 6,129 12.5 9.8°
Reaches altitude 10° 17:12:21 10° 337° (NNW) 5,004 11.9 8.6°
Maximum altitude 17:23:51 30° 32° (NNE) 3,134 10.4 5.7°
Drops below altitude 10° 17:32:41 10° 89° (E) 3,848 10.5 3.5°
Sets 17:35:55 0° 100° (E) 4,565 10.9 2.7°
